[[{"header":{"parameterUnit":"m.s-1","parameterCategory":1,"la1":30.2991,"la2":30.254,"lo1":-89.0895,"lo2":-89.0444,"dy":0.0017,"dx":0.0017,"nx":28,"ny":28,"refTime":"2023-09-11T21:00:00:Z","depth":0,"parameterNumber":2,"parameterNumberName":"U-component_of_WINDS"},"data":[0,0,0,0,0,0,0,0,0,0,0,0,0,0,0,0,0,0,0,0,0,0,0,0,0,0,0,0,0,0,0,0,0,0,0,0,0,0,0,0,0,0,0,0,0,0,0,0,0,0,0,0,0,0,0,0,0,0,3.1381,3.1381,0,3.1436,3.1436,3.1437,3.1375,3.1372,3.137,3.1368,3.1423,3.1427,3.143,0,0,0,0,0,0,0,0,0,0,0,0,0,3.1219,3.1222,3.1381,3.1381,3.1382,3.1436,3.1436,3.1437,3.1375,3.1372,3.1369,3.1367,3.1422,3.1426,3.1431,0,0,0,0,0,0,0,0,0,0,0,0,0,3.1283,3.1223,3.1381,3.1358,3.1356,3.1436,3.1437,3.1437,3.1376,3.1372,3.1369,3.1365,3.1421,3.1426,3.1431,3.1536,0,0,3.1448,3.145,0,0,0,0,0,0,0,0,3.1279,3.1289,3.136,3.1359,3.1358,3.1395,3.14,3.147,3.1377,3.1368,3.1368,3.1364,3.1417,3.1422,3.144,3.1538,3.1541,3.1449,3.1452,3.1454,3.1456,0,0,0,0,0,0,0,3.1275,3.1286,3.1402,3.1361,3.136,3.1343,3.1349,3.1413,3.1411,3.1369,3.1364,3.1372,3.1415,3.1435,3.1441,3.1542,3.1448,3.1453,3.1457,3.1459,3.1724,3.1728,0,0,0,0,0,0,3.1273,3.1283,3.1401,3.1404,3.1309,3.1349,3.1355,3.1386,3.1411,3.1411,3.1375,3.1369,3.1427,3.1435,3.1443,3.1564,3.1454,3.1459,3.1463,3.1721,3.1725,3.1729,0,0,0,0,0,0,3.127,3.1285,3.1398,3.1342,3.1356,3.1356,3.1391,3.1389,3.1409,3.1415,3.1414,3.1395,3.1425,3.1435,3.1512,3.1565,3.1462,3.1467,3.1716,3.1722,3.1727,3.1808,0,0,0,0,0,0,3.1266,3.1284,3.1324,3.1344,3.1359,3.1468,3.1395,3.1393,3.1419,3.1412,3.1434,3.1435,3.1423,3.1504,3.1518,3.157,3.1471,3.1711,3.1719,3.1725,3.1801,3.1816,3.1829,0,0,0,0,0,3.126,3.1346,3.1327,3.1341,3.141,3.1472,3.148,3.1465,3.1424,3.1463,3.1467,3.1434,3.1557,3.1513,3.1527,3.1583,3.1708,3.1717,3.1725,3.1795,3.1813,3.1829,0,0,0,0,0,0,3.1333,3.1348,3.1327,3.1422,3.1446,3.1461,3.1511,3.1486,3.1522,3.1513,3.1493,3.1498,3.158,3.1589,3.1539,3.1683,3.1626,3.1637,3.1674,3.1691,3.1705,3.17,3.1476,0,0,0,0,0,3.136,3.1409,3.142,3.1502,3.1515,3.1511,3.1538,3.1524,3.1548,3.1558,3.1567,3.1591,3.1634,3.1664,3.1705,3.1803,3.1805,3.1847,3.1861,3.1873,3.1883,3.1931,3.195,3.1757,3.1757,3.1757,0,0,3.1416,3.143,3.1463,3.1517,3.1534,3.1584,3.152,3.1577,3.1613,3.1566,3.1639,3.1646,3.1672,3.1759,3.1798,3.1769,3.1936,3.1884,3.1893,3.1896,3.1942,3.196,3.1976,3.1763,3.1762,3.1761,0,0,3.1543,3.1561,3.1629,3.1647,3.1674,3.167,3.1687,3.1705,3.1708,3.1781,3.1746,3.1789,3.1866,3.1884,3.1903,3.2035,3.2005,3.2049,3.2122,3.217,3.2185,3.2198,3.2242,3.2259,3.2059,3.206,3.206,0,3.161,3.1685,3.1668,3.1726,3.1749,3.1709,3.1777,3.1795,3.1834,3.185,3.1818,3.1911,3.1926,3.2015,3.2046,3.2065,3.2081,3.2046,3.2184,3.2197,3.221,3.2251,3.2268,3.2065,3.2064,3.2064,3.2063,0,3.1763,3.1816,3.1868,3.1905,3.1935,3.1998,3.1989,3.2021,3.2004,3.2003,3.2076,3.2092,3.2134,3.2154,3.2139,3.2241,3.2222,3.2188,3.2129,3.2233,3.2272,3.2288,3.2072,3.207,3.2068,3.2067,0,0,3.1938,3.1964,3.1983,3.1997,3.2023,3.2062,3.2123,3.2163,3.2189,3.2217,3.2265,3.2331,3.2298,3.232,3.2306,3.2349,3.2448,3.2309,3.2309,3.2332,3.2557,3.2581,3.26,3.243,3.2433,3.2435,3.2554,0,3.2063,3.2168,3.2153,3.2253,3.2299,3.226,3.2312,3.2332,3.2333,3.2372,3.2373,3.2417,3.2373,3.2385,3.2426,3.2428,3.2493,3.2419,3.2472,3.2474,3.2464,3.2621,3.2647,3.2758,3.257,3.2572,3.2574,0,3.2224,3.2256,3.236,3.2375,3.2394,3.2441,3.2475,3.2514,3.2535,3.2532,3.2556,3.2534,3.2592,3.2534,3.2613,3.2563,3.2584,3.2588,3.2592,3.2594,3.2529,3.2625,3.2794,3.281,3.2598,3.2596,3.2595,0,3.2337,3.2406,3.2477,3.2491,3.2511,3.2545,3.2555,3.2573,3.2597,3.2627,3.2642,3.2679,3.2699,3.2727,3.2715,3.2674,3.2794,3.2736,3.2792,3.2792,3.2817,3.2815,3.2989,3.2835,3.2835,3.2835,3.2834,0,3.2477,3.2541,3.2527,3.257,3.264,3.2622,3.2692,3.2697,3.2713,3.2755,3.2725,3.2765,3.2747,3.2786,3.2777,3.2841,3.2851,3.2849,3.2845,3.285,3.285,3.2862,3.2852,3.2839,3.2838,3.2837,3.2837,0,3.2614,3.2608,3.2681,3.2694,3.2698,3.2749,3.2759,3.2799,3.2797,3.285,3.2862,3.2858,3.2901,3.2892,3.2941,3.2934,3.3014,3.3002,3.3007,3.3003,3.3058,3.3052,3.3244,3.3266,3.31,3.3102,3.3103,0,3.2703,3.2751,3.2768,3.2794,3.2806,3.2849,3.2873,3.2856,3.2883,3.2909,3.2945,3.2985,3.3017,3.3087,3.3088,3.3124,3.3111,3.3176,3.3116,3.3119,3.3108,3.3105,3.3108,3.3187,3.3189,3.3191,3.3192,0,3.286,3.2853,3.289,3.2924,3.2953,3.298,3.3004,3.3026,3.3012,3.3042,3.3086,3.311,3.3158,3.3198,3.3231,3.3239,3.3212,3.3211,3.3225,3.3229,3.3228,3.3226,3.3036,3.3206,3.3205,3.3204,3.3203,3.3202,3.2973,3.3013,3.303,3.3071,3.3087,3.3109,3.3145,3.3147,3.3183,3.322,3.3209,3.3258,3.3275,3.3316,3.3329,3.3366,3.3341,3.3363,3.3368,3.3372,3.3377,3.3225,3.3372,3.3372,3.3371,3.3371,3.3371,0,3.3126,3.3135,3.3172,3.3205,3.3236,3.3208,3.3232,3.326,3.3303,3.3322,3.3353,3.3401,3.3439,3.3443,3.3478,3.3506,3.3495,3.3516,3.3512,3.3514,3.3399,3.3382,3.3524,3.3524,3.3524,3.3524,3.3524,3.3524,3.3209,3.3273,3.3269,3.334,3.3348,3.3395,3.3411,3.343,3.3444,3.35,3.3531,3.3533,3.3545,3.358,3.3613,3.3613,3.3626,3.3651,3.3646,3.3538,3.3523,3.3508,3.3491,3.3655,3.3655,3.3757,3.3758,3.3759]},{"header":{"parameterUnit":"m.s-1","parameterCategory":1,"la1":30.2991,"la2":30.254,"lo1":-89.0895,"lo2":-89.0444,"dy":0.0017,"dx":0.0017,"nx":28,"ny":28,"refTime":"2023-09-11T21:00:00:Z","depth":0,"parameterNumber":3,"parameterNumberName":"V-component_of_WINDS"},"data":[0,0,0,0,0,0,0,0,0,0,0,0,0,0,0,0,0,0,0,0,0,0,0,0,0,0,0,0,0,0,0,0,0,0,0,0,0,0,0,0,0,0,0,0,0,0,0,0,0,0,0,0,0,0,0,0,0,0,1.0353,1.0354,0,1.0371,1.0372,1.0372,1.0344,1.0343,1.0342,1.0341,1.0361,1.0362,1.0363,0,0,0,0,0,0,0,0,0,0,0,0,0,1.0295,1.0296,1.0353,1.0354,1.0354,1.0371,1.0372,1.0372,1.0344,1.0343,1.0342,1.0341,1.036,1.0362,1.0364,0,0,0,0,0,0,0,0,0,0,0,0,0,1.0317,1.0296,1.0353,1.0342,1.0341,1.0371,1.0372,1.0372,1.0344,1.0343,1.0342,1.034,1.036,1.0362,1.0364,1.0406,0,0,1.037,1.0371,0,0,0,0,0,0,0,0,1.0316,1.0319,1.0344,1.0343,1.0342,1.0354,1.0358,1.0383,1.0345,1.0343,1.0341,1.0339,1.036,1.0362,1.0368,1.0407,1.0408,1.0371,1.0372,1.0373,1.0373,0,0,0,0,0,0,0,1.0314,1.0318,1.0361,1.0344,1.0343,1.0336,1.0338,1.0363,1.0359,1.0343,1.0341,1.0344,1.0359,1.0366,1.0369,1.0408,1.037,1.0372,1.0374,1.0375,1.0479,1.0481,0,0,0,0,0,0,1.0314,1.0317,1.036,1.0361,1.0325,1.0338,1.034,1.0352,1.0359,1.0359,1.0345,1.0342,1.0363,1.0366,1.0369,1.0417,1.0373,1.0375,1.0376,1.0478,1.048,1.0481,0,0,0,0,0,0,1.0313,1.0318,1.0359,1.0339,1.0343,1.0341,1.0354,1.0353,1.036,1.036,1.036,1.0353,1.0362,1.0366,1.0396,1.0418,1.0376,1.0378,1.0476,1.0478,1.0481,1.0515,0,0,0,0,0,0,1.0312,1.0318,1.0334,1.0339,1.0345,1.0387,1.0355,1.0354,1.0364,1.036,1.0368,1.0368,1.0362,1.0393,1.0398,1.042,1.0379,1.0474,1.0477,1.048,1.0512,1.0518,1.0524,0,0,0,0,0,1.031,1.0344,1.0335,1.0341,1.0365,1.0388,1.0391,1.0383,1.0366,1.0381,1.0381,1.0367,1.0414,1.0397,1.0402,1.0425,1.0473,1.0476,1.048,1.0509,1.0517,1.0523,0,0,0,0,0,0,1.0343,1.0345,1.0335,1.0372,1.038,1.0383,1.0403,1.0392,1.0405,1.0401,1.0391,1.0393,1.0425,1.0428,1.0408,1.0464,1.0441,1.0445,1.0461,1.0469,1.0474,1.0473,1.0381,0,0,0,0,0,1.0355,1.0373,1.0374,1.0406,1.0411,1.0406,1.0416,1.0409,1.0417,1.042,1.0422,1.043,1.0447,1.0458,1.0473,1.0512,1.0513,1.053,1.0536,1.0541,1.0545,1.0563,1.0571,1.0493,1.0492,1.0492,0,0,1.0379,1.0382,1.0395,1.0413,1.0418,1.0437,1.0409,1.0431,1.0445,1.0423,1.0452,1.0453,1.0462,1.0496,1.0511,1.0499,1.0566,1.0545,1.0549,1.055,1.0568,1.0575,1.0582,1.0495,1.0494,1.0494,0,0,1.0433,1.0438,1.0465,1.047,1.0477,1.0474,1.048,1.0484,1.0484,1.0512,1.0496,1.0512,1.0541,1.0547,1.0554,1.0607,1.0594,1.0613,1.0643,1.0661,1.0667,1.0673,1.069,1.0697,1.0617,1.0617,1.0617,0,1.0463,1.049,1.048,1.0502,1.051,1.049,1.0517,1.0522,1.0535,1.0541,1.0527,1.0561,1.0566,1.06,1.0613,1.062,1.0626,1.0612,1.0667,1.0673,1.0677,1.0694,1.0701,1.0619,1.0619,1.0618,1.0618,0,1.0525,1.0545,1.0565,1.0576,1.0586,1.0611,1.0604,1.0615,1.0607,1.0604,1.0632,1.0636,1.0651,1.0659,1.0651,1.0691,1.0684,1.0669,1.0645,1.0687,1.0703,1.0709,1.0622,1.0621,1.0621,1.062,0,0,1.0603,1.0606,1.0613,1.0617,1.0623,1.0637,1.066,1.0673,1.0683,1.0692,1.071,1.0734,1.0719,1.0727,1.072,1.0736,1.0776,1.0719,1.0719,1.0729,1.0819,1.0829,1.0837,1.0767,1.0769,1.077,1.0818,0,1.0655,1.0693,1.0684,1.0722,1.0738,1.0719,1.0738,1.0743,1.0741,1.0755,1.0753,1.0769,1.075,1.0754,1.0769,1.0768,1.0794,1.0764,1.0784,1.0784,1.0781,1.0845,1.0857,1.0902,1.0824,1.0825,1.0825,0,1.0722,1.0731,1.0771,1.0771,1.0778,1.0796,1.0806,1.0819,1.0825,1.0822,1.0829,1.0818,1.084,1.0815,1.0844,1.0824,1.0831,1.0832,1.0833,1.0834,1.0807,1.0847,1.0916,1.0923,1.0835,1.0834,1.0834,0,1.0772,1.0795,1.0821,1.0825,1.0827,1.0839,1.0841,1.0844,1.0852,1.0861,1.0866,1.0878,1.0885,1.0894,1.0886,1.0869,1.0916,1.0891,1.0913,1.0914,1.0924,1.0923,1.0994,1.093,1.093,1.093,1.093,0,1.0831,1.0856,1.0843,1.0859,1.0885,1.0873,1.09,1.0899,1.0902,1.0917,1.0901,1.0916,1.0905,1.0918,1.0912,1.0936,1.0939,1.0937,1.0935,1.0938,1.0938,1.0942,1.0939,1.0931,1.0931,1.0931,1.093,0,1.0892,1.0885,1.0911,1.091,1.091,1.093,1.0928,1.0943,1.0939,1.0958,1.0962,1.0956,1.097,1.0963,1.0979,1.0975,1.1005,1.0999,1.1003,1.1001,1.1023,1.1021,1.1099,1.1108,1.1039,1.1039,1.104,0,1.093,1.0948,1.0948,1.0956,1.0959,1.0973,1.098,1.0969,1.0977,1.0983,1.0996,1.1009,1.1019,1.1043,1.104,1.1051,1.1045,1.1072,1.1047,1.1049,1.1044,1.1043,1.1044,1.1077,1.1077,1.1078,1.1079,0,1.0998,1.0993,1.1004,1.1013,1.1022,1.1029,1.1034,1.1042,1.1031,1.1041,1.1055,1.1062,1.1077,1.109,1.1099,1.11,1.1087,1.1086,1.1092,1.1095,1.1096,1.1094,1.1016,1.1085,1.1084,1.1084,1.1083,1.1083,1.1048,1.1062,1.1063,1.1075,1.1078,1.1083,1.1096,1.1092,1.1104,1.1114,1.1107,1.1123,1.1126,1.1137,1.114,1.1152,1.1141,1.115,1.1152,1.1154,1.1156,1.1094,1.1154,1.1154,1.1154,1.1153,1.1153,0,1.1113,1.1113,1.1124,1.1131,1.114,1.1126,1.1131,1.114,1.1154,1.1158,1.1167,1.1182,1.1194,1.1191,1.1201,1.1211,1.1206,1.1214,1.1213,1.1213,1.1166,1.1159,1.1219,1.1219,1.1219,1.1219,1.1219,1.1219,1.1148,1.1171,1.1166,1.1189,1.1188,1.1203,1.1207,1.1211,1.1213,1.1231,1.124,1.1237,1.1238,1.1248,1.1258,1.1256,1.1261,1.1271,1.1268,1.1224,1.1217,1.1211,1.1205,1.1273,1.1273,1.1314,1.1315,1.1315]}]]